Location: Bay Ridge
(40.6340°N, 74.0146°W)
Time: 07:26:06
(UTC+00:00)

CZ-4B R/B - Pass Details

Date: 15 November 2019
Orbit: 809 x 881 km, 99.1° (Epoch: 14 December)

Event Time Altitude Azimuth Distance (km) Brightness Sun altitude
Rises 11:04:52 0° 8° (N) 3,361 6.2 -7.5°
Reaches altitude 10° 11:07:15 10° 3° (N) 2,433 5.5 -7.1°
Maximum altitude 11:12:25 50° 290° (WNW) 1,060 3.4 -6.1°
Drops below altitude 10° 11:17:40 10° 216° (SW) 2,462 5.5 -5.2°
Sets 11:20:06 0° 211° (SSW) 3,405 6.2 -4.8°
